timestamp,surface_pressure_avg,surface_temp_avg,battery_voltage,lat,long
2022-05-30 00:09:00+00:00,347.9263,8.38,12.17,47.84626,-54.09684
2022-05-30 00:19:01+00:00,344.9246,8.4,12.17,47.84626,-54.09684
2022-05-30 00:29:01+00:00,348.1063,8.39,12.17,47.84626,-54.09684
2022-05-30 00:39:01+00:00,345.913,8.4,12.17,47.84626,-54.09684
2022-05-30 00:49:01+00:00,341.3929,8.49,12.17,47.84626,-54.09684
2022-05-30 00:59:01+00:00,340.0196,8.4,12.17,47.84626,-54.09684
2022-05-30 01:09:01+00:00,337.1146,8.4,12.17,47.84626,-54.09684
2022-05-30 01:19:00+00:00,327.638,8.4,12.17,47.84626,-54.09684
2022-05-30 01:29:00+00:00,324.1013,8.3,12.17,47.84626,-54.09684
2022-05-30 01:39:00+00:00,320.138,8.29,12.17,47.84626,-54.09684
2022-05-30 01:49:00+00:00,313.728,8.3,12.17,47.84626,-54.09684
2022-05-30 01:59:00+00:00,302.988,8.33,12.17,47.84626,-54.09684
2022-05-30 02:09:00+00:00,298.8914,8.38,12.17,47.84626,-54.09684
2022-05-30 02:19:00+00:00,295.9047,8.4,12.09,47.84626,-54.09684
2022-05-30 02:29:00+00:00,286.6064,8.4,12.09,47.84626,-54.09684
2022-05-30 02:39:00+00:00,275.8514,8.46,12.09,47.84626,-54.09684
2022-05-30 02:49:00+00:00,266.9847,8.53,12.09,47.84626,-54.09684
2022-05-30 02:59:00+00:00,261.8664,8.6,12.09,47.84626,-54.09684
2022-05-30 03:09:00+00:00,254.8831,8.6,12.09,47.84626,-54.09684
2022-05-30 03:19:00+00:00,245.3597,8.6,12.17,47.84626,-54.09684
2022-05-30 03:29:00+00:00,238.2914,8.6,12.17,47.84626,-54.09684
2022-05-30 03:39:00+00:00,234.8798,8.6,12.17,47.84626,-54.09684
2022-05-30 03:49:00+00:00,228.6231,8.6,12.17,47.84626,-54.09684
2022-05-30 03:59:00+00:00,220.8214,8.6,12.17,47.84626,-54.09684
2022-05-30 04:09:00+00:00,217.6798,8.6,12.17,47.84626,-54.09684
2022-05-30 04:19:01+00:00,211.7514,8.6,12.17,47.84626,-54.09684
2022-05-30 04:29:01+00:00,203.3731,8.6,12.17,47.84626,-54.09684
2022-05-30 04:39:01+00:00,198.4031,8.6,12.17,47.84626,-54.09684
2022-05-30 04:49:01+00:00,193.9764,8.6,12.17,47.84626,-54.09684
2022-05-30 04:59:01+00:00,189.4098,8.59,12.17,47.84626,-54.09684
2022-05-30 05:09:01+00:00,189.7364,8.59,12.17,47.84626,-54.09684
2022-05-30 05:19:00+00:00,188.5998,8.59,12.09,47.84626,-54.09684
2022-05-30 05:29:00+00:00,185.6481,8.58,12.09,47.84626,-54.09684
2022-05-30 05:39:00+00:00,189.0981,8.58,12.09,47.84626,-54.09684
2022-05-30 05:49:00+00:00,192.0965,8.58,12.09,47.84626,-54.09684
2022-05-30 05:59:00+00:00,189.8431,8.57,12.09,47.84626,-54.09684
2022-05-30 06:09:00+00:00,189.6315,8.6,12.09,47.84626,-54.09684
2022-05-30 06:19:01+00:00,194.1515,8.6,12.09,47.84626,-54.09684
2022-05-30 06:29:01+00:00,196.4781,8.6,12.09,47.84626,-54.09684
2022-05-30 06:39:01+00:00,199.0698,8.6,12.09,47.84626,-54.09684
2022-05-30 06:49:01+00:00,204.0864,8.6,12.09,47.84626,-54.09684
2022-05-30 06:59:01+00:00,208.9181,8.6,12.09,47.84626,-54.09684
2022-05-30 07:09:01+00:00,212.9898,8.6,12.09,47.84626,-54.09684
2022-05-30 07:19:01+00:00,217.5214,8.6,12.09,47.84626,-54.09684
2022-05-30 07:29:01+00:00,221.803,8.6,12.09,47.84626,-54.09684
2022-05-30 07:39:01+00:00,226.3714,8.6,12.09,47.84626,-54.09684
2022-05-30 07:49:01+00:00,229.7465,8.6,12.09,47.84626,-54.09684
2022-05-30 07:59:01+00:00,233.6265,8.58,12.09,47.84626,-54.09684
2022-05-30 08:09:01+00:00,238.2314,8.5,12.09,47.84626,-54.09684
2022-05-30 08:19:01+00:00,243.2248,8.5,12.09,47.84626,-54.09684
2022-05-30 08:29:01+00:00,246.648,8.5,12.09,47.84626,-54.09684
2022-05-30 08:39:01+00:00,255.1081,8.5,12.09,47.84626,-54.09684
2022-05-30 08:49:01+00:00,265.4231,8.5,12.09,47.84626,-54.09684
2022-05-30 08:59:01+00:00,269.8631,8.5,12.09,47.84626,-54.09684
2022-05-30 09:09:01+00:00,274.6648,8.5,12.09,47.84626,-54.09684
2022-05-30 09:19:00+00:00,283.9847,8.5,12.09,47.84626,-54.09684
2022-05-30 09:29:00+00:00,291.6597,8.5,12.09,47.84626,-54.09684
2022-05-30 09:39:00+00:00,295.9597,8.5,12.09,47.84626,-54.09684
2022-05-30 09:49:00+00:00,298.7697,8.5,12.09,47.84626,-54.09684
2022-05-30 09:59:00+00:00,305.4663,8.51,12.09,47.84626,-54.09684
2022-05-30 10:09:00+00:00,313.293,8.52,12.09,47.84626,-54.09684
2022-05-30 10:19:00+00:00,313.953,8.53,12.25,47.84626,-54.09684
2022-05-30 10:29:00+00:00,316.0797,8.5,12.25,47.84626,-54.09684
2022-05-30 10:39:00+00:00,324.313,8.5,12.25,47.84626,-54.09684
2022-05-30 10:49:00+00:00,329.1230000000001,8.5,12.25,47.84626,-54.09684
2022-05-30 10:59:00+00:00,328.0663,8.5,12.25,47.84626,-54.09684
2022-05-30 11:09:00+00:00,330.6747,8.5,12.25,47.84626,-54.09684
2022-05-30 11:19:00+00:00,337.2596,8.5,12.33,47.84626,-54.09684
2022-05-30 11:29:00+00:00,334.5979,8.5,12.33,47.84626,-54.09684
2022-05-30 11:39:00+00:00,328.6562,8.5,12.33,47.84626,-54.09684
2022-05-30 11:49:00+00:00,330.2963,8.5,12.33,47.84626,-54.09684
2022-05-30 11:59:00+00:00,330.533,8.5,12.33,47.84626,-54.09684
2022-05-30 12:09:00+00:00,326.9613,8.5,12.33,47.84626,-54.09684
2022-05-30 12:19:00+00:00,324.2547,8.5,12.33,47.84626,-54.09684
2022-05-30 12:29:00+00:00,327.0031,8.5,12.33,47.84626,-54.09684
2022-05-30 12:39:00+00:00,325.9012,8.5,12.33,47.84626,-54.09684
2022-05-30 12:49:00+00:00,321.4246,8.5,12.33,47.84626,-54.09684
2022-05-30 12:59:00+00:00,322.3663,8.5,12.33,47.84626,-54.09684
2022-05-30 13:09:00+00:00,323.2479,8.5,12.33,47.84626,-54.09684
2022-05-30 13:19:00+00:00,318.3929,8.51,12.65,47.84626,-54.09684
2022-05-30 13:29:00+00:00,316.493,8.55,12.65,47.84626,-54.09684
2022-05-30 13:39:00+00:00,315.3047,8.55,12.65,47.84626,-54.09684
2022-05-30 13:49:00+00:00,307.6813,8.58,12.65,47.84626,-54.09684
2022-05-30 13:59:00+00:00,300.573,8.59,12.65,47.84626,-54.09684
2022-05-30 14:09:00+00:00,299.6597,8.59,12.65,47.84626,-54.09684
2022-05-30 14:19:00+00:00,292.543,8.59,12.65,47.84626,-54.09684
2022-05-30 14:29:00+00:00,280.1348,8.6,12.65,47.84626,-54.09684
2022-05-30 14:39:00+00:00,275.6214,8.6,12.65,47.84626,-54.09684
2022-05-30 14:49:00+00:00,272.2914,8.6,12.65,47.84626,-54.09684
2022-05-30 14:59:00+00:00,261.1481,8.6,12.65,47.84626,-54.09684
2022-05-30 15:09:00+00:00,251.5147,8.69,12.65,47.84626,-54.09684
2022-05-30 15:19:00+00:00,250.0664,8.7,12.65,47.84626,-54.09684
2022-05-30 15:29:00+00:00,241.5814,8.7,12.65,47.84626,-54.09684
2022-05-30 15:39:00+00:00,227.9131,8.77,12.65,47.84626,-54.09684
2022-05-30 15:49:00+00:00,221.4148,8.79,12.65,47.84626,-54.09684
2022-05-30 15:59:00+00:00,220.8598,8.8,12.65,47.84626,-54.09684
2022-05-30 16:09:00+00:00,214.1781,8.8,12.65,47.84626,-54.09684
2022-05-30 16:19:00+00:00,206.4581,8.8,12.65,47.84626,-54.09684
2022-05-30 16:29:00+00:00,206.3165,8.8,12.65,47.84626,-54.09684
2022-05-30 16:39:00+00:00,207.1698,8.8,12.65,47.84626,-54.09684
2022-05-30 16:49:00+00:00,202.3715,8.9,12.65,47.84626,-54.09684
2022-05-30 16:59:00+00:00,199.9514,8.9,12.65,47.84626,-54.09684
2022-05-30 17:09:00+00:00,201.4715,8.9,12.65,47.84626,-54.09684
2022-05-30 17:19:00+00:00,201.2581,8.9,12.49,47.84626,-54.09684
2022-05-30 17:29:00+00:00,199.9615,8.9,12.49,47.84626,-54.09684
2022-05-30 17:39:00+00:00,201.8431,8.9,12.49,47.84626,-54.09684
2022-05-30 17:49:00+00:00,204.2731,8.8,12.49,47.84626,-54.09684
2022-05-30 17:59:00+00:00,206.2648,8.81,12.49,47.84626,-54.09684
2022-05-30 18:09:00+00:00,210.1948,8.8,12.49,47.84626,-54.09684
2022-05-30 18:19:01+00:00,216.0614,8.8,12.41,47.84626,-54.09684
2022-05-30 18:29:01+00:00,219.0115,8.71,12.41,47.84626,-54.09684
2022-05-30 18:39:01+00:00,220.0831,8.71,12.41,47.84626,-54.09684
2022-05-30 18:49:01+00:00,223.9348,8.7,12.41,47.84626,-54.09684
2022-05-30 18:59:01+00:00,230.3864,8.6,12.41,47.84626,-54.09684
2022-05-30 19:09:01+00:00,234.1831,8.6,12.41,47.84626,-54.09684
2022-05-30 19:19:00+00:00,236.6031,8.6,12.33,47.84626,-54.09684
2022-05-30 19:29:00+00:00,241.5832,8.6,12.33,47.84626,-54.09684
2022-05-30 19:39:00+00:00,246.4497,8.64,12.33,47.84626,-54.09684
2022-05-30 19:49:00+00:00,249.1664,8.8,12.33,47.84626,-54.09684
2022-05-30 19:59:00+00:00,251.8497,8.85,12.33,47.84626,-54.09684
2022-05-30 20:09:00+00:00,256.8014,8.9,12.33,47.84626,-54.09684
2022-05-30 20:19:01+00:00,260.9681,8.9,12.33,47.84626,-54.09684
2022-05-30 20:29:01+00:00,264.3231,8.9,12.33,47.84626,-54.09684
2022-05-30 20:39:01+00:00,269.2631,8.7,12.33,47.84626,-54.09684
2022-05-30 20:49:01+00:00,277.4465,8.71,12.33,47.84626,-54.09684
2022-05-30 20:59:01+00:00,286.1697,8.69,12.33,47.84626,-54.09684
2022-05-30 21:09:01+00:00,288.553,8.8,12.33,47.84626,-54.09684
2022-05-30 21:19:00+00:00,292.453,8.87,12.25,47.84626,-54.09684
2022-05-30 21:29:00+00:00,300.4897,8.9,12.25,47.84626,-54.09684
2022-05-30 21:39:00+00:00,309.4246,8.9,12.25,47.84626,-54.09684
2022-05-30 21:49:00+00:00,314.3397,8.95,12.25,47.84626,-54.09684
2022-05-30 21:59:00+00:00,322.4347,9.0,12.25,47.84626,-54.09684
2022-05-30 22:09:00+00:00,330.5146,8.84,12.25,47.84626,-54.09684
2022-05-30 22:19:00+00:00,336.9563,8.99,12.25,47.84626,-54.09684
2022-05-30 22:29:00+00:00,342.5963,9.08,12.25,47.84626,-54.09684
2022-05-30 22:39:00+00:00,348.9197,8.9,12.25,47.84626,-54.09684
2022-05-30 22:49:00+00:00,353.108,8.6,12.25,47.84626,-54.09684
2022-05-30 22:59:00+00:00,358.8629,8.5,12.25,47.84626,-54.09684
2022-05-30 23:09:00+00:00,361.9463,8.4,12.25,47.84626,-54.09684
2022-05-30 23:19:00+00:00,365.3979,8.43,12.25,47.84626,-54.09684
2022-05-30 23:29:00+00:00,365.3179,8.49,12.25,47.84626,-54.09684
2022-05-30 23:39:00+00:00,366.8063,8.6,12.25,47.84626,-54.09684
2022-05-30 23:49:00+00:00,367.3997,8.6,12.25,47.84626,-54.09684
2022-05-30 23:59:00+00:00,369.1945,8.6,12.25,47.84626,-54.09684
